sat.trackr.live / text

‹ back to catalog

HULIANWANG DIGUI-68

NORAD 65228 · 2025-178A

PAYLOAD ACTIVE UNKNOWN

§ Identity

Operator
Country
PRC
Launch date
2025-08-17
Launch site
TAISC
Launch vehicle
Mass (kg)
RCS (m²)

External: N2YO · Heavens-Above · Gunter

§ Orbital elements

Epoch: 2026-05-25T03:55:42.396960Z

Period
108.73 min
Inclination
86.5002°
Eccentricity
0.0001630
Mean motion
13.24408827 rev/d
Perigee alt
1,166.7 km
Apogee alt
1,169.2 km
Semi-major
7,546.1 km
B*
3.6505e-5
RAAN
21.2960°
Arg perigee
87.2074°
Mean anomaly
272.9246°
Rev number
3,726

§ Raw data

HULIANWANG DIGUI-681 65228U 25178A   26145.16368515  .00000030  00000+0  36505-4 0  99942 65228  86.5002  21.2960 0001630  87.2074 272.9246 13.24408827 37263

JSON: /api/v1/satellites/65228 · /tle

For live sub-satellite position, see the globe view (requires WebGL).

§ Visibility from observer

Set your observer location to see the next 7 days of passes ≥ 10°. The values pass through the URL so the page stays shareable.

No JS? Fill the form by hand. The geolocation button needs JavaScript.